Retour au catalogue

STARLINK-5241

ActifCommunicationsVLEO
NORAD 54204·PAYLOAD·🇺🇸 United States

Lancé Oct 28, 2022 depuis Vandenberg Space Force Base

Loading…

Prochains Passages (prochaines 24 heures)

TLE

FraisSource: CelesTrak SupGP

Époque: Sep 15, 2026, 02:12 UTC

1 54204C 22141AZ  26258.09215278 -.00025737  00000+0 -73643-3 0  2581
2 54204  53.1583 213.2097 0001240  89.7986 284.9105 15.35407717    10

Suivez STARLINK-5241 en temps réel avec AllMySat

Download on the App Store